Regional Weather Roundup
Issued by NWS

Home | Current Version | Previous Version | Text Only | Print | Product List | Glossary On
Versions: 1 2 3 4 5 6 7 8 9 10 11 12 13 14 15 16 17 18 19 20 21 22 23 24 25 26 27 28 29 30 31 32 33 34 35 36 37 38 39 40 41 42 43 44 45 46 47 48 49 50
000
ASUS44 KOUN 270110
RWROK

WEATHER ROUNDUP FOR OKLAHOMA
NATIONAL WEATHER SERVICE NORMAN OK
800 PM CDT THU MAY 26 2016

NOTE: "FAIR" INDICATES FEW OR NO CLOUDS BELOW 12,000 FEET WITH NO
      SIGNIFICANT WEATHER AND/OR OBSTRUCTIONS TO VISIBILITY.

OKZ001>007-009>012-014-015-017-270200-
NORTHWEST OKLAHOMA AND THE PANHANDLE

CITY           SKY/WX    TMP DP  RH WIND       PRES   REMARKS
GAGE           CLEAR     82  66  58 S26G35    29.58F
GUYMON         CLEAR     82  32  16 SW13      29.61R
ENID/WOODRING  PTCLDY    82  64  54 S26G36    29.66R
$$

OKZ016-021>023-033>039-044-045-270200-
SOUTHWEST OKLAHOMA

CITY           SKY/WX    TMP DP  RH WIND       PRES   REMARKS
LAWTON/REGL    CLOUDY    78  66  66 SE14      29.71R
LAWTON/FT SILL CLOUDY    77  68  72 SE15      29.70S
FREDERICK      CLOUDY    79  68  69 SE17G26   29.64S
CLINTON        LGT RAIN  79  67  66 SE30G39   29.66F
HOBART         CLOUDY    79  68  69 S23G44    29.63F
ALTUS AFB      CLOUDY    77  68  73 SE17G30   29.63R
$$

OKZ018>020-024>031-270200-
CENTRAL OKLAHOMA

CITY           SKY/WX    TMP DP  RH WIND       PRES   REMARKS
OKLAHOMA CITY  PTCLDY    76  64  66 S18G26    29.73R
OKC/WILEY POST CLEAR     79  64  60 S24G31    29.72R
OKC/TINKER AFB CLEAR     76  63  64 S12G21    29.73S
STILLWATER     CLEAR     78  62  57 S23G37    29.72R
GUTHRIE        CLEAR     79  62  56 S15G29    29.72R
$$

OKZ008-013-054>072-270200-
NORTHEAST OKLAHOMA

CITY           SKY/WX    TMP DP  RH WIND       PRES   REMARKS
TULSA          PTCLDY    81  65  58 S21G29    29.74F
TULSA/JONES    CLEAR     81  65  58 S14G28    29.76S
PONCA CITY     PTCLDY    81  66  60 S22G41    29.68S
BARTLESVILLE   CLEAR     79  66  64 S13G21    29.75S
MUSKOGEE       CLOUDY    76  65  68 SE10      29.82R
$$

OKZ032-040>043-046>053-073>077-270200-
SOUTH CENTRAL/SOUTHEAST OKLAHOMA

CITY           SKY/WX    TMP DP  RH WIND       PRES   REMARKS
ARDMORE/DWNTWN CLEAR     73  63  68 S12G18    29.75S
MCALESTER      CLEAR     77  65  66 SE9G22    29.80R
$$





USA.gov is the U.S. government's official web portal to all federal, state and local government web resources and services.